Location: Unspecified
(0.0000°N, 0.0000°E)
Time: 20:23:20
(UTC+00:00)

ARIANE 2 DEB - Pass Details

Date: 08 March 2026
Orbit: 560 x 35706 km, 7.7° (Epoch: 21 April)

Event Time Altitude Azimuth Distance (km) Brightness Sun altitude
Rises 20:49:02 0° 258° (WSW) 4,685 ? -39.4°
Reaches altitude 10° 20:50:51 10° 255° (WSW) 4,238 ? -39.9°
Enters shadow 21:21:21 55° 106° (ESE) 9,858 ? -47.5°
Exits shadow 22:24:57 42° 93° (E) 22,981 ? -63.2°
Maximum altitude 04:50:47 80° 44° (NE) 26,490 ? -19.9°
Drops below altitude 10° 06:51:32 10° 80° (E) 7,958 ? 10.2°
Sets 06:54:53 0° 82° (E) 7,976 ? 11.0°
